Wind_Speed
29 31 30 29 28 27 28 27 26 25 24 22 20 18 17 15 14 14 13 12 13 13 12 10 9 10 9 9 9 11 12 12 12 10 9 9 8 8 8 8 7 6
29 33 32 30 29 29 29 28 27 26 25 22 21 20 18 17 16 14 13 12 13 13 12 10 9 9 9 8 8 9 10 10 10 9 9 9 8 7 7 7 8 7
30 33 33 31 30 31 31 29 27 27 26 24 23 21 19 18 17 14 12 11 12 13 13 11 10 9 8 7 6 7 7 7 7 7 6 7 7 7 6 6 6 6
31 31 33 32 30 32 32 31 29 28 27 26 25 23 21 20 18 15 13 11 11 12 13 12 11 9 7 5 5 5 5 4 4 4 3 4 5 5 5 4 4 4
29 29 32 33 30 31 32 31 31 30 29 28 26 25 22 21 20 17 14 12 11 11 12 12 11 9 7 5 4 4 4 3 2 2 0 1 2 2 3 3 2 2
30 27 32 35 33 32 32 32 32 31 30 28 27 26 24 22 21 18 16 14 12 12 11 12 11 9 7 6 5 4 3 3 3 3 3 2 1 1 1 0 1 1
31 27 32 35 35 33 32 32 32 32 31 29 28 27 25 23 21 19 17 14 13 12 11 11 11 10 9 7 7 7 6 5 6 5 5 5 5 4 4 3 2 1
30 30 33 34 35 35 35 34 34 34 32 30 30 28 25 23 22 20 17 14 13 12 10 10 10 9 9 8 8 9 8 8 8 8 8 8 8 8 7 6 5 4
31 31 30 30 32 32 32 32 32 34 35 33 31 29 27 24 21 20 18 15 13 12 10 9 9 9 9 8 8 9 10 11 11 11 10 10 11 11 10 9 8 7
31 29 26 27 28 23 23 26 26 29 32 34 33 30 28 25 23 20 18 16 14 13 12 11 10 10 10 9 9 10 11 12 13 13 13 13 14 13 13 13 12 10
30 29 25 22 17 11 11 19 22 24 27 30 31 31 30 27 24 22 19 18 16 15 14 14 13 13 13 13 13 12 12 13 14 15 15 16 16 16 15 15 15 13
24 25 23 21 18 13 9 10 12 14 18 23 22 20 23 25 24 23 21 19 17 16 16 16 16 16 16 17 18 17 17 16 16 17 18 18 18 18 17 17 17 15
20 18 16 17 19 18 15 13 11 9 12 19 17 13 15 18 17 18 19 19 19 18 17 17 17 17 17 17 19 20 20 20 20 20 20 21 21 21 20 19 18 17
18 17 15 15 16 15 15 18 17 13 13 16 17 17 17 15 13 14 17 19 19 19 19 19 19 19 18 18 18 19 20 20 22 24 25 25 24 24 23 21 20 19
17 16 17 17 19 17 15 18 20 19 17 16 17 19 20 20 19 17 18 20 20 20 21 19 19 19 20 18 18 19 20 21 22 24 27 29 28 27 25 23 22 20
16 16 16 14 15 17 21 24 25 25 23 19 18 18 17 20 22 20 19 20 19 19 19 19 19 20 19 18 19 21 22 23 24 24 27 30 31 30 28 26 24 22
13 12 11 14 20 24 25 24 24 23 20 16 15 16 15 16 18 18 17 15 13 13 14 15 16 16 17 19 20 22 22 24 25 25 26 30 33 33 31 28 25 24
13 15 15 18 22 23 20 19 18 16 13 9 10 11 11 11 11 11 10 10 10 11 12 12 13 14 16 18 19 20 21 22 24 26 28 30 33 34 31 28 27 27
14 17 18 18 18 16 14 14 13 11 9 7 7 7 8 8 9 8 8 8 8 8 8 8 9 12 14 15 16 16 17 18 20 24 28 31 32 32 30 28 29 28
19 20 19 17 16 15 14 13 11 9 8 6 5 5 5 5 4 4 4 5 5 5 5 6 7 9 11 13 14 15 15 16 17 19 23 28 31 32 30 29 30 29
19 19 17 16 14 13 11 10 8 7 6 5 4 5 4 3 3 1 1 3 5 5 5 5 6 8 10 12 14 13 13 12 13 14 18 23 24 25 26 26 27 27
16 15 13 12 10 8 7 6 5 4 4 4 3 3 2 2 2 2 2 3 4 5 6 6 6 8 11 12 12 11 9 7 9 12 15 16 16 17 18 20 20 19
12 11 10 8 6 6 6 5 5 4 3 3 3 3 3 4 4 5 6 5 6 7 7 7 7 7 9 10 9 7 5 3 5 8 9 10 10 11 13 15 13 11
12 10 9 8 7 7 8 6 5 4 3 3 4 3 3 4 6 6 7 8 8 8 8 7 7 6 6 6 5 4 2 3 6 8 9 11 11 12 12 13 11 8
13 11 10 10 10 10 9 7 6 6 5 5 4 4 5 6 7 7 8 9 9 9 9 8 7 6 5 5 4 3 4 5 6 8 10 10 10 10 10 11 10 10
6 8 10 10 10 10 10 8 8 8 8 7 6 6 6 7 8 7 8 10 10 10 10 9 9 8 7 6 5 6 6 6 6 8 9 9 9 10 10 11 11 10
Wind_Direction
184 182 180 179 178 176 175 176 174 169 166 163 158 156 154 151 148 147 146 143 140 136 129 123 119 116 110 103 100 96 95 96 93 94 98 103 109 114 111 101 91 88
191 187 185 184 184 182 181 182 180 174 170 165 160 157 157 156 154 151 147 146 150 148 142 134 131 130 119 105 100 97 95 94 89 87 89 94 101 102 98 92 86 77
196 192 189 188 189 187 186 188 187 181 174 168 162 160 160 160 160 158 152 147 148 150 148 143 136 136 130 116 111 109 105 98 91 88 82 85 91 90 89 89 86 76
199 200 193 191 195 194 191 192 192 187 180 173 168 164 162 162 162 162 160 155 149 148 151 153 148 145 143 137 129 124 123 115 101 99 80 76 84 80 84 87 82 80
201 208 201 195 196 198 197 197 196 192 186 180 174 169 166 164 165 166 164 162 158 153 154 159 159 158 160 164 159 147 148 155 143 144 130 58 84 64 61 77 90 113
198 208 208 200 196 198 202 202 201 198 191 185 181 176 172 168 168 168 166 163 161 159 160 164 167 169 172 179 186 192 199 204 211 219 243 260 244 273 298 311 136 154
195 207 213 204 198 198 203 206 206 203 196 191 186 182 179 176 174 172 168 164 162 161 163 166 172 176 181 189 196 208 221 224 230 238 245 249 246 254 266 260 230 215
194 203 209 206 200 198 201 206 208 207 201 195 190 188 186 182 179 176 172 167 164 163 163 167 173 181 189 197 204 213 224 228 231 239 246 247 244 249 261 262 258 258
194 198 202 204 202 200 200 202 206 207 203 198 194 191 190 189 185 181 176 171 169 169 170 173 177 187 196 205 213 220 226 230 232 236 242 245 244 246 252 256 259 262
193 197 200 201 203 205 199 195 202 208 204 199 196 193 192 191 189 186 182 179 179 178 181 186 190 196 206 215 223 228 231 233 236 238 240 243 244 245 246 248 251 253
189 196 202 202 206 221 204 194 203 211 206 199 195 193 193 193 191 189 188 186 188 190 194 200 204 207 213 222 228 232 236 238 238 240 243 244 245 245 244 244 245 248
180 191 197 197 202 215 216 209 212 208 199 196 195 189 188 190 191 193 194 193 194 198 202 208 213 216 220 226 230 231 235 239 239 240 243 244 246 246 245 243 241 243
163 171 174 177 187 196 195 200 214 218 201 199 202 194 178 177 184 192 198 201 202 204 208 211 213 216 220 226 232 232 233 238 241 242 242 242 244 246 245 243 240 239
146 159 158 149 152 159 167 177 187 200 205 200 201 199 188 182 189 197 201 206 208 210 213 214 214 222 232 235 235 235 234 237 242 244 243 241 242 243 243 242 238 237
116 138 145 139 138 145 168 182 182 189 202 202 196 195 194 195 201 206 207 209 213 215 217 222 231 246 256 252 245 244 245 245 247 247 245 243 240 239 240 238 235 234
131 136 139 149 168 184 198 204 200 198 202 200 192 195 205 208 209 215 218 219 223 227 231 241 252 260 265 264 264 266 265 260 257 254 249 244 241 237 235 233 230 228
181 181 174 187 198 196 193 194 195 196 198 200 201 210 220 217 214 219 223 226 237 246 254 261 265 267 267 269 272 272 270 267 264 261 255 248 242 237 231 226 222 220
198 204 197 192 191 188 183 182 187 194 199 201 204 208 210 213 221 231 237 248 263 270 277 279 276 275 273 275 276 274 271 270 267 265 260 253 244 234 226 221 219 217
170 176 172 168 168 168 168 170 178 188 192 191 196 204 217 231 243 253 259 267 273 277 282 283 282 282 283 288 292 291 286 280 273 267 261 253 241 228 221 220 219 216
163 160 154 151 150 150 152 155 158 159 159 164 170 177 194 210 221 234 238 236 243 254 262 272 284 291 299 306 304 300 297 290 283 275 261 249 237 227 222 223 220 216
154 151 149 150 149 148 148 146 146 147 146 146 142 140 149 158 153 153 187 201 211 226 243 263 283 297 310 317 317 312 305 292 277 262 247 238 231 224 223 222 218 213
151 147 144 147 150 150 147 144 148 154 157 168 177 178 192 214 222 252 273 250 226 231 249 265 285 305 316 326 334 335 327 299 262 243 234 232 227 220 217 213 212 213
161 157 150 149 152 153 154 157 161 164 170 191 209 218 232 253 263 258 255 257 248 243 250 259 269 289 309 325 337 340 334 290 235 219 211 206 196 191 195 195 196 208
185 179 170 168 170 168 168 172 178 190 207 220 230 249 269 285 291 275 257 253 251 246 245 247 251 263 289 309 320 316 279 205 184 176 170 167 163 162 171 178 183 196
193 194 191 185 182 180 180 187 202 215 222 227 238 262 286 305 315 300 266 248 244 243 243 241 241 241 250 266 265 247 232 214 196 184 172 171 178 183 187 196 207 219
182 191 196 193 189 189 194 205 218 225 227 230 240 258 277 299 316 305 264 244 235 233 236 236 234 228 223 227 233 229 223 217 210 203 191 185 191 199 204 209 214 219
Height
808 810 811 812 814 815 817 818 817 817 817 819 820 821 823 823 824 825 826 827 827 827 828 829 829 830 831 832 832 833 833 834 834 835 835 836 836 837 838 838 839 839
807 809 810 811 813 814 816 817 816 816 816 817 819 820 822 823 824 825 826 827 827 828 828 829 830 830 831 832 833 834 834 835 835 836 836 837 837 838 838 839 840 840
807 808 809 810 812 813 815 816 816 816 816 817 818 819 821 822 824 825 826 827 827 828 829 829 830 831 831 832 833 834 835 835 836 837 837 838 838 839 839 840 840 841
806 808 809 810 811 813 814 815 816 817 817 817 817 818 819 821 822 824 825 826 827 828 829 829 830 831 832 833 833 834 835 836 836 837 838 838 839 839 840 840 841 841
805 808 809 810 810 812 814 814 815 816 816 817 817 817 817 818 820 822 823 825 826 827 828 829 830 831 832 833 833 834 835 836 837 837 838 839 839 840 840 840 841 841
803 804 807 807 808 810 812 813 814 815 815 816 816 816 816 817 818 820 821 823 824 826 827 828 830 830 831 832 833 834 835 836 837 838 838 839 839 840 840 841 841 841
800 801 803 805 806 807 809 811 812 813 814 814 815 815 815 816 817 818 819 821 822 824 825 827 828 829 830 831 832 834 835 836 837 838 838 839 839 840 840 841 841 841
797 799 800 802 803 804 806 808 810 811 813 813 814 814 815 815 816 817 818 820 821 823 824 825 827 828 829 830 831 833 834 835 836 837 838 839 839 840 840 841 841 841
794 796 798 800 801 802 803 805 808 810 811 811 812 813 814 814 815 817 818 819 820 822 823 825 826 827 828 829 830 831 832 834 835 836 837 838 838 839 840 841 841 841
793 795 796 798 799 801 802 803 807 810 810 810 811 811 813 814 815 816 818 819 820 821 822 824 825 826 827 828 828 829 830 831 833 834 835 836 837 838 839 839 840 841
792 794 796 797 799 802 804 804 806 810 810 811 811 811 812 813 815 816 818 819 820 821 822 823 823 824 824 825 826 827 828 829 831 832 834 835 836 837 837 838 839 839
792 795 796 796 798 801 805 808 810 811 812 812 813 813 813 814 816 817 817 818 820 820 821 821 822 822 822 822 823 824 826 827 828 830 831 833 834 835 836 836 837 838
791 794 796 796 798 800 804 809 813 816 816 813 813 815 816 816 818 819 819 819 819 819 820 820 820 820 821 822 823 823 824 825 827 828 829 831 832 833 834 835 835 836
790 792 795 797 800 803 806 809 812 817 819 816 815 818 818 818 819 821 821 820 819 818 818 819 819 820 820 821 822 823 823 824 825 826 827 828 830 830 832 832 833 834
792 793 794 797 799 803 809 812 811 812 815 816 817 818 818 816 818 820 820 820 819 818 818 819 819 819 819 820 821 821 822 822 823 824 825 826 827 828 829 830 831 832
792 793 795 798 800 802 807 809 809 808 809 811 812 813 813 813 814 816 817 818 818 818 818 819 819 819 819 819 820 820 821 821 821 822 823 824 825 825 827 828 829 830
791 792 794 798 801 802 804 806 807 807 808 808 808 809 810 811 812 814 814 815 816 817 817 818 818 818 817 818 818 819 820 820 820 820 820 821 822 822 823 825 827 828
789 792 795 798 799 801 803 804 805 806 806 807 807 808 810 810 811 812 813 814 814 815 816 816 816 816 815 816 816 817 818 818 818 818 818 818 819 819 821 824 825 826
790 793 795 797 799 801 802 803 804 804 805 806 806 807 808 809 810 811 811 812 813 814 814 815 815 814 814 814 815 815 816 816 816 816 816 816 816 817 819 821 822 823
792 793 795 797 798 800 801 802 803 804 805 805 806 807 807 808 809 810 811 812 813 813 814 814 814 814 814 814 814 813 813 813 813 813 813 814 814 814 816 819 820 820
793 794 795 796 797 799 800 801 802 803 804 805 806 807 808 808 809 810 811 812 812 813 813 813 813 813 813 813 813 812 812 812 812 812 812 813 814 814 816 818 820 820
793 794 795 796 797 798 799 800 801 803 803 804 805 806 807 808 809 810 810 811 812 812 812 813 813 813 813 812 812 812 811 811 811 811 812 813 814 815 817 819 821 821
794 794 795 796 797 798 799 800 801 802 803 804 805 806 807 807 808 809 810 810 811 811 811 812 812 812 812 812 812 812 811 811 811 812 812 813 814 816 817 819 820 821
794 794 795 796 797 798 799 800 801 802 803 804 804 805 806 807 807 808 809 809 809 810 810 811 811 812 812 812 812 812 812 812 812 812 813 814 815 816 817 818 819 820
793 794 795 795 796 798 799 800 801 802 803 803 804 804 805 806 807 808 808 808 809 809 809 810 810 811 811 812 812 812 813 813 813 814 814 815 815 816 817 818 819 820
794 794 795 795 796 797 798 799 800 801 802 803 803 804 804 805 806 807 808 808 809 809 809 809 809 810 810 811 812 812 813 813 814 815 815 815 816 816 817 817 818 819